Miami Beach, Florida, United States (33109)
Lat: 25.79N, Lon: 80.13W
Wx Zone: FLZ173
Local Info
Past Weather Observations for Thursday, October 23, 2014

NOTE: This archive is for the closest National Weather Service station to Miami Beach. Information may differ from the station used for current weather conditions.

Click here for Long-term Archive

Time Weather Temperature Dewpoint Humidity Pressure Winds Precip Visibility
23:53
Overcast
Light Rain
75°F / 24°C 72°F / 22°C 89% 29.89 in
(1012 mb)
NE 5.8 mph
(NE 9 kph)
0.00 in
(0.00 mm)
9SM
22:53
Overcast
Light Rain
77°F / 25°C 70°F / 21°C 79% 29.92 in
(1013 mb)
NE 12.7 mph
(NE 20 kph)
0.00 in
(0.00 mm)
9SM
22:13
Overcast
79°F / 26°C 70°F / 21°C 74% 29.92 in
(1013 mb)
ENE 10.4 mph
(ENE 17 kph)
- 10SM
21:53
Mostly Cloudy
79°F / 26°C 70°F / 21°C 74% 29.92 in
(1013 mb)
NE 8.1 mph
(NE 13 kph)
- 10SM
20:53
Mostly Cloudy
77°F / 25°C 70°F / 21°C 79% 29.92 in
(1013 mb)
NE 10.4 mph
(NE 17 kph)
- 10SM
19:53
Mostly Cloudy
77°F / 25°C 70°F / 21°C 79% 29.89 in
(1012 mb)
NE 11.5 mph
(NE 19 kph)
- 10SM
19:45
Overcast
77°F / 25°C 70°F / 21°C 79% 29.89 in
(1012 mb)
NE 11.5 mph
(NE 19 kph)
- 10SM
19:00
Overcast
77°F / 25°C 70°F / 21°C 79% 29.89 in
(1012 mb)
NE 8.1 mph
(NE 13 kph)
- 10SM
18:53
Mostly Cloudy
77°F / 25°C 70°F / 21°C 79% 29.89 in
(1012 mb)
NE 11.5 mph
(NE 19 kph)
- 10SM
17:53
Mostly Cloudy
75°F / 24°C 70°F / 21°C 83% 29.89 in
(1012 mb)
NE 9.2 mph
(NE 15 kph)
- 10SM
16:53
Mostly Cloudy
75°F / 24°C 72°F / 22°C 89% 29.89 in
(1012 mb)
NE 9.2 mph
(NE 15 kph)
0.00 in
(0.00 mm)
10SM
15:53
Mostly Cloudy
Light Rain
77°F / 25°C 72°F / 22°C 83% 29.89 in
(1012 mb)
NE 9.2 mph
(NE 15 kph)
0.00 in
(0.00 mm)
10SM
15:27
Partly Cloudy
77°F / 25°C 72°F / 22°C 83% 29.89 in
(1012 mb)
NE 12.7 mph
(NE 20 kph)
- 10SM
14:53
Mostly Cloudy
75°F / 24°C 73°F / 23°C 94% 29.92 in
(1013 mb)
Calm - 10SM
14:34
Overcast
79°F / 26°C 72°F / 22°C 79% 29.89 in
(1012 mb)
NNE 11.5 mph
(NNE 19 kph)
- 10SM
13:53
Fair
77°F / 25°C 73°F / 23°C 89% 29.89 in
(1012 mb)
NE 10.4 mph
(NE 17 kph)
0.15 in
(3.81 mm)
10SM
12:57
Overcast
Light Rain
79°F / 26°C 72°F / 22°C 79% 29.89 in
(1012 mb)
NE 13.8 mph
(NE 22 kph)
0.00 in
(0.00 mm)
6SM
12:53
Overcast
Light Rain
79°F / 26°C 72°F / 22°C 79% 29.92 in
(1013 mb)
NNE 15 mph
(NNE 24 kph)
0.00 in
(0.00 mm)
10SM
11:53
Mostly Cloudy
81°F / 27°C 72°F / 22°C 74% 29.92 in
(1013 mb)
E 8.1 mph
(E 13 kph)
- 10SM
10:53
Mostly Cloudy
77°F / 25°C 72°F / 22°C 83% 29.95 in
(1014 mb)
NE 6.9 mph
(NE 11 kph)
0.01 in
(0.25 mm)
10SM
10:24
Overcast
75°F / 24°C 73°F / 23°C 94% 29.95 in
(1014 mb)
NE 6.9 mph
(NE 11 kph)
0.01 in
(0.25 mm)
10SM
09:53
Overcast
Cumulonimbus Clouds Observed
75°F / 24°C 72°F / 22°C 89% 29.95 in
(1014 mb)
NE 8.1 mph
(NE 13 kph)
- 10SM
09:35
Overcast
Cumulonimbus Clouds Observed
75°F / 24°C 72°F / 22°C 89% 29.95 in
(1014 mb)
NE 9.2 mph
(NE 15 kph)
- 10SM
09:28
Overcast
Cumulonimbus Clouds Observed
75°F / 24°C 72°F / 22°C 89% 29.95 in
(1014 mb)
NE 12.7 mph
(NE 20 kph)
- 10SM
08:53
Overcast
Cumulonimbus Clouds Observed
77°F / 25°C 73°F / 23°C 89% 29.95 in
(1014 mb)
NE 4.6 mph
(NE 7 kph)
0.00 in
(0.00 mm)
10SM
08:05
Overcast
Light Rain
75°F / 24°C 72°F / 22°C 89% 29.95 in
(1014 mb)
NE 3.5 mph
(NE 6 kph)
0.00 in
(0.00 mm)
10SM
07:53
Overcast
75°F / 24°C 72°F / 22°C 89% 29.95 in
(1014 mb)
Calm 0.01 in
(0.25 mm)
10SM
07:28
Overcast
Light Rain
75°F / 24°C 72°F / 22°C 89% 29.92 in
(1013 mb)
N 4.6 mph
(N 7 kph)
0.01 in
(0.25 mm)
10SM
07:11
Overcast
Light Rain
75°F / 24°C 72°F / 22°C 89% 29.92 in
(1013 mb)
NNE 3.5 mph
(NNE 6 kph)
0.01 in
(0.25 mm)
10SM
06:53
Overcast
Light Rain
73°F / 23°C 72°F / 22°C 94% 29.92 in
(1013 mb)
ESE 3.5 mph
(ESE 6 kph)
0.00 in
(0.00 mm)
10SM
06:28
Overcast
73°F / 23°C 72°F / 22°C 94% 29.92 in
(1013 mb)
N 5.8 mph
(N 9 kph)
0.00 in
(0.00 mm)
10SM
06:07
Overcast
73°F / 23°C 72°F / 22°C 94% 29.92 in
(1013 mb)
N 3.5 mph
(N 6 kph)
0.00 in
(0.00 mm)
10SM
05:53
Overcast
Light Rain
75°F / 24°C 72°F / 22°C 89% 29.92 in
(1013 mb)
N 4.6 mph
(N 7 kph)
0.00 in
(0.00 mm)
10SM
05:19
Overcast
Light Rain
75°F / 24°C 73°F / 23°C 94% 29.89 in
(1012 mb)
Calm 0.00 in
(0.00 mm)
10SM
04:53
Mostly Cloudy
73°F / 23°C 73°F / 23°C 100% 29.89 in
(1012 mb)
Calm 0.00 in
(0.00 mm)
10SM
03:53
Overcast
Light Rain
75°F / 24°C 73°F / 23°C 94% 29.89 in
(1012 mb)
NW 3.5 mph
(NW 6 kph)
0.02 in
(0.51 mm)
7SM
02:53
Overcast
Light Rain
75°F / 24°C 73°F / 23°C 94% 29.89 in
(1012 mb)
ESE 3.5 mph
(ESE 6 kph)
0.02 in
(0.51 mm)
7SM
02:43
Overcast
Light Rain
75°F / 24°C 73°F / 23°C 94% 29.89 in
(1012 mb)
Calm 0.02 in
(0.51 mm)
7SM
01:53
Overcast
Light Rain
75°F / 24°C 73°F / 23°C 94% 29.92 in
(1013 mb)
Calm 0.01 in
(0.25 mm)
7SM
01:42
Mostly Cloudy
Light Rain
75°F / 24°C 73°F / 23°C 94% 29.92 in
(1013 mb)
Calm 0.01 in
(0.25 mm)
9SM
00:53
Overcast
75°F / 24°C 73°F / 23°C 94% 29.92 in
(1013 mb)
Calm 0.00 in
(0.00 mm)
10SM
Time Weather Temperature Dewpoint Humidity Pressure Winds Precip Visibility


Weather for websites

WeatherForYou.com, LLC is not responsible for any damages or problems caused by this service. Current weather conditions are obtained from the closest station including government and personal stations which may have varying degrees of accuracy. Weather forecasts are derived from the NOAA NDFD. Like all things, this site belongs to Jesus Christ... He just trusts me to maintain it. If you have any questions or comments email webmaster@weatherforyou.com

Copyright © 2014, WeatherForYou.com LLC. All rights reserved.